Saint Bonnet de Bellac- Haute Vienne - France
Donnes mto: vendredi, 24/02/2012
Date Horaire Temp. E. Hum. E. P.atmo. Pluie Vent Direction Direction Ensoleilleme Solaire P. de rose Temp au vent Rafales
24/02/2012 00:00 7,3 C 95 % 1029,7 hPa 0,0 mm 0,4 km/h (0 Bft) S-SO 202 0 min 0 W/m 6,6 C 7,3 C 3,2 km/h (1 Bft)
24/02/2012 00:10 7,3 C 95 % 1029,7 hPa 0,0 mm 0,0 km/h (0 Bft) O-SO 247 0 min 0 W/m 6,6 C 7,3 C 0,0 km/h (0 Bft)
24/02/2012 00:20 7,3 C 95 % 1029,7 hPa 0,0 mm 0,0 km/h (0 Bft) SO 225 0 min 0 W/m 6,6 C 7,3 C 0,0 km/h (0 Bft)
24/02/2012 00:30 7,3 C 95 % 1029,6 hPa 0,0 mm 0,0 km/h (0 Bft) SO 225 0 min 0 W/m 6,6 C 7,3 C 0,0 km/h (0 Bft)
24/02/2012 00:40 7,3 C 95 % 1029,7 hPa 0,0 mm 0,0 km/h (0 Bft) O-SO 247 0 min 0 W/m 6,6 C 7,3 C 0,0 km/h (0 Bft)
24/02/2012 00:50 7,3 C 95 % 1029,8 hPa 0,0 mm 0,0 km/h (0 Bft) O-SO 247 0 min 0 W/m 6,6 C 7,3 C 0,0 km/h (0 Bft)
24/02/2012 01:00 7,2 C 95 % 1029,8 hPa 0,0 mm 0,0 km/h (0 Bft) O-SO 247 0 min 0 W/m 6,5 C 7,2 C 0,0 km/h (0 Bft)
24/02/2012 01:10 7,2 C 95 % 1029,8 hPa 0,0 mm 0,0 km/h (0 Bft) SO 225 0 min 0 W/m 6,5 C 7,2 C 0,0 km/h (0 Bft)
24/02/2012 01:20 7,2 C 95 % 1029,8 hPa 0,0 mm 0,0 km/h (0 Bft) SO 225 0 min 0 W/m 6,5 C 7,2 C 0,0 km/h (0 Bft)
24/02/2012 01:30 7,2 C 95 % 1029,9 hPa 0,0 mm 0,0 km/h (0 Bft) SO 225 0 min 0 W/m 6,5 C 7,2 C 0,0 km/h (0 Bft)
24/02/2012 01:40 7,1 C 95 % 1029,8 hPa 0,0 mm 0,0 km/h (0 Bft) SO 225 0 min 0 W/m 6,4 C 7,1 C 0,0 km/h (0 Bft)
24/02/2012 01:50 7,1 C 95 % 1029,7 hPa 0,0 mm 0,0 km/h (0 Bft) SO 225 0 min 0 W/m 6,4 C 7,1 C 0,0 km/h (0 Bft)
24/02/2012 02:02 7,1 C 95 % 1029,8 hPa 0,0 mm 0,0 km/h (0 Bft) SO 225 0 min 0 W/m 6,4 C 7,1 C 0,0 km/h (0 Bft)
24/02/2012 02:10 7,1 C 95 % 1029,8 hPa 0,0 mm 0,0 km/h (0 Bft) SO 225 0 min 0 W/m 6,4 C 7,1 C 0,0 km/h (0 Bft)
24/02/2012 02:20 7,1 C 95 % 1029,8 hPa 0,0 mm 0,0 km/h (0 Bft) SO 225 0 min 0 W/m 6,4 C 7,1 C 0,0 km/h (0 Bft)
24/02/2012 02:30 7,1 C 95 % 1029,8 hPa 0,0 mm 0,0 km/h (0 Bft) SO 225 0 min 0 W/m 6,4 C 7,1 C 0,0 km/h (0 Bft)
24/02/2012 02:40 7,1 C 95 % 1029,7 hPa 0,0 mm 0,0 km/h (0 Bft) SO 225 0 min 0 W/m 6,4 C 7,1 C 0,0 km/h (0 Bft)
24/02/2012 02:50 7,1 C 95 % 1029,7 hPa 0,0 mm 0,0 km/h (0 Bft) SO 225 0 min 0 W/m 6,4 C 7,1 C 0,0 km/h (0 Bft)
24/02/2012 03:00 7,0 C 95 % 1029,7 hPa 0,0 mm 0,0 km/h (0 Bft) SO 225 0 min 0 W/m 6,3 C 7,0 C 0,0 km/h (0 Bft)
24/02/2012 03:10 7,0 C 95 % 1029,6 hPa 0,0 mm 0,0 km/h (0 Bft) SO 225 0 min 0 W/m 6,3 C 7,0 C 0,0 km/h (0 Bft)
24/02/2012 03:20 6,9 C 95 % 1029,5 hPa 0,0 mm 0,0 km/h (0 Bft) SO 225 0 min 0 W/m 6,2 C 6,9 C 0,0 km/h (0 Bft)
24/02/2012 03:30 7,0 C 95 % 1029,3 hPa 0,0 mm 0,0 km/h (0 Bft) SO 225 0 min 0 W/m 6,3 C 7,0 C 0,0 km/h (0 Bft)
24/02/2012 03:40 7,0 C 95 % 1029,2 hPa 0,0 mm 0,0 km/h (0 Bft) SO 225 0 min 0 W/m 6,3 C 7,0 C 0,0 km/h (0 Bft)
24/02/2012 03:50 6,9 C 95 % 1029,1 hPa 0,0 mm 0,0 km/h (0 Bft) SO 225 0 min 0 W/m 6,2 C 6,9 C 0,0 km/h (0 Bft)
24/02/2012 04:00 6,9 C 95 % 1029,0 hPa 0,0 mm 0,0 km/h (0 Bft) SO 225 0 min 0 W/m 6,2 C 6,9 C 0,0 km/h (0 Bft)
24/02/2012 04:10 6,9 C 95 % 1029,1 hPa 0,0 mm 0,0 km/h (0 Bft) SO 225 0 min 0 W/m 6,2 C 6,9 C 0,0 km/h (0 Bft)
24/02/2012 04:20 6,9 C 95 % 1029,1 hPa 0,0 mm 0,0 km/h (0 Bft) SO 225 0 min 0 W/m 6,2 C 6,9 C 0,0 km/h (0 Bft)
24/02/2012 04:30 6,9 C 95 % 1029,0 hPa 0,0 mm 0,0 km/h (0 Bft) SO 225 0 min 0 W/m 6,2 C 6,9 C 0,0 km/h (0 Bft)
24/02/2012 04:40 6,9 C 95 % 1029,1 hPa 0,0 mm 0,0 km/h (0 Bft) SO 225 0 min 0 W/m 6,2 C 6,9 C 0,0 km/h (0 Bft)
24/02/2012 04:50 6,8 C 95 % 1029,2 hPa 0,0 mm 0,0 km/h (0 Bft) SO 225 0 min 0 W/m 6,1 C 6,8 C 0,0 km/h (0 Bft)
24/02/2012 05:00 6,8 C 95 % 1029,0 hPa 0,0 mm 0,0 km/h (0 Bft) SO 225 0 min 0 W/m 6,1 C 6,8 C 0,0 km/h (0 Bft)
24/02/2012 05:10 6,8 C 95 % 1029,0 hPa 0,0 mm 0,0 km/h (0 Bft) SO 225 0 min 0 W/m 6,1 C 6,8 C 0,0 km/h (0 Bft)
24/02/2012 05:20 6,7 C 95 % 1029,0 hPa 0,0 mm 0,0 km/h (0 Bft) SO 225 0 min 0 W/m 6,0 C 6,7 C 0,0 km/h (0 Bft)
24/02/2012 05:30 6,7 C 95 % 1029,0 hPa 0,0 mm 0,0 km/h (0 Bft) SO 225 0 min 0 W/m 6,0 C 6,7 C 0,0 km/h (0 Bft)
24/02/2012 05:40 6,8 C 95 % 1029,0 hPa 0,0 mm 0,0 km/h (0 Bft) SO 225 0 min 0 W/m 6,1 C 6,8 C 0,0 km/h (0 Bft)
24/02/2012 05:50 6,7 C 95 % 1029,0 hPa 0,0 mm 0,0 km/h (0 Bft) SO 225 0 min 0 W/m 6,0 C 6,7 C 0,0 km/h (0 Bft)
24/02/2012 06:00 6,6 C 95 % 1029,0 hPa 0,0 mm 0,0 km/h (0 Bft) S 180 0 min 0 W/m 5,9 C 6,6 C 0,0 km/h (0 Bft)
24/02/2012 06:10 6,5 C 94 % 1029,0 hPa 0,0 mm 0,0 km/h (0 Bft) S 180 0 min 0 W/m 5,6 C 6,5 C 0,0 km/h (0 Bft)
24/02/2012 06:20 6,5 C 95 % 1029,0 hPa 0,0 mm 0,0 km/h (0 Bft) S 180 0 min 0 W/m 5,8 C 6,5 C 0,0 km/h (0 Bft)
24/02/2012 06:30 6,5 C 95 % 1029,0 hPa 0,0 mm 0,0 km/h (0 Bft) S 180 0 min 0 W/m 5,8 C 6,5 C 0,0 km/h (0 Bft)
24/02/2012 06:40 6,5 C 95 % 1029,0 hPa 0,1 mm 0,0 km/h (0 Bft) S 180 0 min 0 W/m 5,8 C 6,5 C 0,0 km/h (0 Bft)
24/02/2012 06:50 6,5 C 95 % 1029,0 hPa 0,0 mm 0,0 km/h (0 Bft) S 180 0 min 0 W/m 5,8 C 6,5 C 0,0 km/h (0 Bft)
24/02/2012 07:00 6,5 C 95 % 1029,0 hPa 0,0 mm 0,0 km/h (0 Bft) S 180 0 min 0 W/m 5,8 C 6,5 C 0,0 km/h (0 Bft)
24/02/2012 07:10 6,4 C 95 % 1029,0 hPa 0,0 mm 0,0 km/h (0 Bft) S 180 0 min 0 W/m 5,7 C 6,4 C 0,0 km/h (0 Bft)
24/02/2012 07:20 6,4 C 95 % 1029,0 hPa 0,0 mm 0,0 km/h (0 Bft) S 180 0 min 0 W/m 5,7 C 6,4 C 0,0 km/h (0 Bft)
24/02/2012 07:30 6,4 C 95 % 1029,0 hPa 0,0 mm 0,0 km/h (0 Bft) S 180 0 min 0 W/m 5,7 C 6,4 C 0,0 km/h (0 Bft)
24/02/2012 07:40 6,4 C 95 % 1029,0 hPa 0,0 mm 0,0 km/h (0 Bft) S 180 0 min 0 W/m 5,7 C 6,4 C 0,0 km/h (0 Bft)
24/02/2012 07:50 6,4 C 95 % 1029,2 hPa 0,0 mm 0,0 km/h (0 Bft) S 180 0 min 0 W/m 5,7 C 6,4 C 0,0 km/h (0 Bft)
24/02/2012 08:00 6,4 C 95 % 1029,3 hPa 0,0 mm 0,0 km/h (0 Bft) S 180 2 min 0 W/m 5,7 C 6,4 C 0,0 km/h (0 Bft)
24/02/2012 08:10 6,5 C 95 % 1029,4 hPa 0,0 mm 0,0 km/h (0 Bft) S 180 2 min 0 W/m 5,8 C 6,5 C 0,0 km/h (0 Bft)
24/02/2012 08:20 6,5 C 95 % 1029,5 hPa 0,0 mm 0,0 km/h (0 Bft) S 180 2 min 0 W/m 5,8 C 6,5 C 0,0 km/h (0 Bft)
24/02/2012 08:30 6,5 C 95 % 1029,6 hPa 0,0 mm 0,0 km/h (0 Bft) S 180 2 min 0 W/m 5,8 C 6,5 C 0,0 km/h (0 Bft)
24/02/2012 08:40 6,5 C 95 % 1029,6 hPa 0,0 mm 0,0 km/h (0 Bft) S 180 2 min 0 W/m 5,8 C 6,5 C 0,0 km/h (0 Bft)
24/02/2012 08:50 6,6 C 95 % 1029,6 hPa 0,0 mm 0,0 km/h (0 Bft) S 180 2 min 0 W/m 5,9 C 6,6 C 0,0 km/h (0 Bft)
24/02/2012 09:00 6,6 C 95 % 1029,6 hPa 0,1 mm 0,0 km/h (0 Bft) S 180 2 min 0 W/m 5,9 C 6,6 C 0,0 km/h (0 Bft)
24/02/2012 09:10 6,6 C 95 % 1029,7 hPa 0,0 mm 0,0 km/h (0 Bft) S-SE 157 2 min 0 W/m 5,9 C 6,6 C 0,0 km/h (0 Bft)
24/02/2012 09:20 6,8 C 95 % 1029,7 hPa 0,0 mm 0,0 km/h (0 Bft) S-SE 157 2 min 0 W/m 6,1 C 6,8 C 0,0 km/h (0 Bft)
24/02/2012 09:30 6,8 C 95 % 1029,7 hPa 0,0 mm 0,0 km/h (0 Bft) S-SE 157 2 min 0 W/m 6,1 C 6,8 C 0,0 km/h (0 Bft)
24/02/2012 09:40 6,9 C 95 % 1029,7 hPa 0,0 mm 0,0 km/h (0 Bft) S-SE 157 2 min 0 W/m 6,2 C 6,9 C 0,0 km/h (0 Bft)
24/02/2012 09:50 7,1 C 95 % 1029,7 hPa 0,0 mm 0,0 km/h (0 Bft) S-SE 157 2 min 0 W/m 6,4 C 7,1 C 0,0 km/h (0 Bft)
24/02/2012 10:00 7,3 C 95 % 1029,7 hPa 0,0 mm 0,0 km/h (0 Bft) S-SE 157 2 min 0 W/m 6,6 C 7,3 C 0,0 km/h (0 Bft)
24/02/2012 10:10 7,4 C 95 % 1029,7 hPa 0,0 mm 0,0 km/h (0 Bft) S-SE 157 2 min 0 W/m 6,7 C 7,4 C 0,0 km/h (0 Bft)
24/02/2012 10:20 7,6 C 95 % 1029,8 hPa 0,0 mm 0,0 km/h (0 Bft) S-SE 157 2 min 0 W/m 6,9 C 7,6 C 0,0 km/h (0 Bft)
24/02/2012 10:30 7,9 C 95 % 1029,8 hPa 0,0 mm 0,0 km/h (0 Bft) S-SE 157 2 min 0 W/m 7,1 C 7,9 C 0,0 km/h (0 Bft)
24/02/2012 10:40 8,2 C 95 % 1029,7 hPa 0,0 mm 0,0 km/h (0 Bft) S-SE 157 2 min 0 W/m 7,4 C 8,2 C 0,0 km/h (0 Bft)
24/02/2012 10:50 8,5 C 95 % 1029,8 hPa 0,0 mm 0,0 km/h (0 Bft) S-SE 157 2 min 0 W/m 7,7 C 8,5 C 0,0 km/h (0 Bft)
24/02/2012 11:00 8,6 C 95 % 1029,7 hPa 0,0 mm 0,0 km/h (0 Bft) S-SE 157 2 min 0 W/m 7,8 C 8,6 C 0,0 km/h (0 Bft)
24/02/2012 11:10 8,9 C 96 % 1029,7 hPa 0,0 mm 0,4 km/h (0 Bft) N-NE 22 2 min 0 W/m 8,3 C 8,9 C 4,0 km/h (1 Bft)
24/02/2012 11:20 9,1 C 96 % 1029,6 hPa 0,0 mm 1,1 km/h (1 Bft) N-NE 22 2 min 0 W/m 8,5 C 9,1 C 4,3 km/h (1 Bft)
24/02/2012 11:30 9,4 C 96 % 1029,6 hPa 0,0 mm 1,1 km/h (1 Bft) N-NE 22 2 min 0 W/m 8,8 C 9,4 C 4,3 km/h (1 Bft)
24/02/2012 11:40 10,1 C 96 % 1029,6 hPa 0,0 mm 2,2 km/h (1 Bft) NE 45 2 min 0 W/m 9,5 C 10,1 C 2,2 km/h (1 Bft)
24/02/2012 11:50 10,6 C 96 % 1029,6 hPa 0,0 mm 0,0 km/h (0 Bft) NE 45 2 min 0 W/m 10,0 C 10,6 C 1,4 km/h (1 Bft)
24/02/2012 12:00 10,9 C 96 % 1029,7 hPa 0,0 mm 3,2 km/h (1 Bft) N-NE 22 2 min 0 W/m 10,3 C 10,9 C 3,2 km/h (1 Bft)
24/02/2012 12:10 11,1 C 96 % 1029,6 hPa 0,0 mm 2,5 km/h (1 Bft) N-NE 22 2 min 0 W/m 10,5 C 11,1 C 3,6 km/h (1 Bft)
24/02/2012 12:20 11,1 C 96 % 1029,5 hPa 0,0 mm 3,2 km/h (1 Bft) E-NE 67 2 min 0 W/m 10,5 C 11,1 C 6,8 km/h (2 Bft)
24/02/2012 12:30 11,1 C 95 % 1029,5 hPa 0,0 mm 7,9 km/h (2 Bft) N-NE 22 2 min 0 W/m 10,3 C 11,1 C 10,8 km/h (2 Bft)
24/02/2012 12:40 11,0 C 95 % 1029,4 hPa 0,0 mm 4,7 km/h (1 Bft) NE 45 2 min 0 W/m 10,2 C 11,0 C 7,6 km/h (2 Bft)
24/02/2012 12:50 11,1 C 94 % 1029,2 hPa 0,0 mm 7,6 km/h (2 Bft) N-NE 22 2 min 0 W/m 10,2 C 11,1 C 7,6 km/h (2 Bft)
24/02/2012 13:00 11,1 C 94 % 1029,2 hPa 0,0 mm 0,4 km/h (0 Bft) NE 45 2 min 0 W/m 10,2 C 11,1 C 3,6 km/h (1 Bft)
24/02/2012 13:10 11,1 C 93 % 1029,1 hPa 0,0 mm 6,5 km/h (2 Bft) N-NE 22 2 min 0 W/m 10,0 C 11,1 C 6,5 km/h (2 Bft)
24/02/2012 13:20 11,1 C 93 % 1029,0 hPa 0,0 mm 1,1 km/h (1 Bft) NE 45 2 min 0 W/m 10,0 C 11,1 C 1,1 km/h (1 Bft)
24/02/2012 13:30 11,1 C 93 % 1028,9 hPa 0,0 mm 2,5 km/h (1 Bft) NE 45 2 min 0 W/m 10,0 C 11,1 C 4,3 km/h (1 Bft)
24/02/2012 13:40 11,2 C 92 % 1028,8 hPa 0,0 mm 3,6 km/h (1 Bft) NE 45 2 min 0 W/m 9,9 C 11,2 C 3,6 km/h (1 Bft)
24/02/2012 13:50 11,4 C 91 % 1028,7 hPa 0,0 mm 2,9 km/h (1 Bft) NE 45 2 min 0 W/m 10,0 C 11,4 C 2,9 km/h (1 Bft)
24/02/2012 14:00 11,5 C 91 % 1028,6 hPa 0,0 mm 2,9 km/h (1 Bft) N 360 2 min 0 W/m 10,1 C 11,5 C 2,9 km/h (1 Bft)
24/02/2012 14:10 11,5 C 90 % 1028,7 hPa 0,0 mm 0,7 km/h (0 Bft) N-NE 22 2 min 0 W/m 9,9 C 11,5 C 3,2 km/h (1 Bft)
24/02/2012 14:20 11,5 C 90 % 1028,7 hPa 0,0 mm 0,0 km/h (0 Bft) E-NE 67 2 min 0 W/m 9,9 C 11,5 C 0,0 km/h (0 Bft)
24/02/2012 14:30 11,6 C 90 % 1028,6 hPa 0,0 mm 3,2 km/h (1 Bft) N-NE 22 2 min 0 W/m 10,0 C 11,6 C 4,3 km/h (1 Bft)
24/02/2012 14:40 11,6 C 89 % 1028,6 hPa 0,0 mm 1,4 km/h (1 Bft) NE 45 2 min 0 W/m 9,8 C 11,6 C 4,0 km/h (1 Bft)
24/02/2012 14:50 11,6 C 89 % 1028,6 hPa 0,0 mm 1,1 km/h (1 Bft) N-NE 22 2 min 0 W/m 9,8 C 11,6 C 4,0 km/h (1 Bft)
24/02/2012 15:00 11,5 C 89 % 1028,6 hPa 0,0 mm 2,9 km/h (1 Bft) N-NE 22 2 min 0 W/m 9,8 C 11,5 C 3,2 km/h (1 Bft)
24/02/2012 15:10 11,4 C 89 % 1028,6 hPa 0,0 mm 1,4 km/h (1 Bft) NE 45 2 min 0 W/m 9,7 C 11,4 C 3,2 km/h (1 Bft)
24/02/2012 15:20 11,4 C 89 % 1028,5 hPa 0,0 mm 1,1 km/h (1 Bft) N-NE 22 2 min 0 W/m 9,7 C 11,4 C 1,1 km/h (1 Bft)
24/02/2012 15:30 11,4 C 88 % 1028,5 hPa 0,0 mm 4,3 km/h (1 Bft) N-NE 22 2 min 0 W/m 9,5 C 11,4 C 6,5 km/h (2 Bft)
24/02/2012 15:40 11,4 C 88 % 1028,5 hPa 0,0 mm 5,4 km/h (2 Bft) N 360 2 min 0 W/m 9,5 C 11,4 C 7,9 km/h (2 Bft)
24/02/2012 15:50 11,4 C 88 % 1028,4 hPa 0,0 mm 2,2 km/h (1 Bft) NE 45 2 min 0 W/m 9,5 C 11,4 C 6,5 km/h (2 Bft)
24/02/2012 16:00 11,4 C 89 % 1028,3 hPa 0,0 mm 2,9 km/h (1 Bft) NE 45 2 min 0 W/m 9,7 C 11,4 C 4,3 km/h (1 Bft)
24/02/2012 16:10 11,4 C 89 % 1028,3 hPa 0,0 mm 3,2 km/h (1 Bft) NE 45 2 min 0 W/m 9,7 C 11,4 C 4,3 km/h (1 Bft)
24/02/2012 16:20 11,5 C 88 % 1028,1 hPa 0,0 mm 3,6 km/h (1 Bft) NE 45 2 min 0 W/m 9,6 C 11,5 C 8,3 km/h (2 Bft)
24/02/2012 16:30 11,4 C 88 % 1028,1 hPa 0,0 mm 3,6 km/h (1 Bft) N-NE 22 2 min 0 W/m 9,5 C 11,4 C 7,2 km/h (2 Bft)
24/02/2012 16:40 11,4 C 88 % 1028,0 hPa 0,0 mm 5,4 km/h (2 Bft) N-NE 22 2 min 0 W/m 9,5 C 11,4 C 6,1 km/h (2 Bft)
24/02/2012 16:50 11,4 C 88 % 1028,0 hPa 0,0 mm 5,4 km/h (2 Bft) NE 45 2 min 0 W/m 9,5 C 11,4 C 9,7 km/h (2 Bft)
24/02/2012 17:00 11,3 C 88 % 1028,0 hPa 0,0 mm 4,3 km/h (1 Bft) N-NE 22 2 min 0 W/m 9,4 C 11,3 C 7,2 km/h (2 Bft)
24/02/2012 17:10 11,2 C 88 % 1028,0 hPa 0,0 mm 3,2 km/h (1 Bft) NE 45 2 min 0 W/m 9,3 C 11,2 C 3,2 km/h (1 Bft)
24/02/2012 17:20 11,1 C 88 % 1027,9 hPa 0,0 mm 3,6 km/h (1 Bft) NE 45 2 min 0 W/m 9,2 C 11,1 C 7,2 km/h (2 Bft)
24/02/2012 17:30 11,1 C 88 % 1027,9 hPa 0,0 mm 2,9 km/h (1 Bft) N-NE 22 2 min 0 W/m 9,2 C 11,1 C 2,9 km/h (1 Bft)
24/02/2012 17:40 10,9 C 88 % 1027,9 hPa 0,0 mm 3,2 km/h (1 Bft) NE 45 2 min 0 W/m 9,0 C 10,9 C 4,3 km/h (1 Bft)
24/02/2012 17:50 10,8 C 88 % 1027,9 hPa 0,0 mm 2,2 km/h (1 Bft) E-NE 67 2 min 0 W/m 8,9 C 10,8 C 4,0 km/h (1 Bft)
24/02/2012 18:00 10,8 C 89 % 1027,9 hPa 0,0 mm 2,2 km/h (1 Bft) N-NE 22 2 min 0 W/m 9,1 C 10,8 C 3,6 km/h (1 Bft)
24/02/2012 18:10 10,8 C 89 % 1027,8 hPa 0,0 mm 1,1 km/h (1 Bft) N-NE 22 2 min 0 W/m 9,1 C 10,8 C 4,0 km/h (1 Bft)
24/02/2012 18:20 10,6 C 89 % 1027,8 hPa 0,0 mm 1,8 km/h (1 Bft) NE 45 2 min 0 W/m 8,9 C 10,6 C 4,0 km/h (1 Bft)
24/02/2012 18:30 10,6 C 89 % 1027,8 hPa 0,0 mm 1,8 km/h (1 Bft) N 360 0 min 0 W/m 8,9 C 10,6 C 1,8 km/h (1 Bft)
24/02/2012 18:40 10,5 C 89 % 1027,9 hPa 0,0 mm 1,4 km/h (1 Bft) NE 45 0 min 0 W/m 8,8 C 10,5 C 3,6 km/h (1 Bft)
24/02/2012 18:50 10,4 C 90 % 1027,9 hPa 0,0 mm 4,7 km/h (1 Bft) E-NE 67 0 min 0 W/m 8,8 C 10,4 C 6,1 km/h (2 Bft)
24/02/2012 19:00 10,4 C 90 % 1028,0 hPa 0,0 mm 2,9 km/h (1 Bft) NE 45 0 min 0 W/m 8,8 C 10,4 C 6,5 km/h (2 Bft)
24/02/2012 19:10 10,3 C 90 % 1028,1 hPa 0,0 mm 2,9 km/h (1 Bft) NE 45 0 min 0 W/m 8,7 C 10,3 C 4,3 km/h (1 Bft)
24/02/2012 19:20 10,3 C 90 % 1028,0 hPa 0,0 mm 4,0 km/h (1 Bft) NE 45 0 min 0 W/m 8,7 C 10,3 C 7,6 km/h (2 Bft)
24/02/2012 19:30 10,2 C 90 % 1028,1 hPa 0,0 mm 2,5 km/h (1 Bft) NE 45 0 min 0 W/m 8,6 C 10,2 C 4,3 km/h (1 Bft)
24/02/2012 19:40 10,1 C 90 % 1028,1 hPa 0,0 mm 6,5 km/h (2 Bft) N-NE 22 0 min 0 W/m 8,5 C 10,1 C 10,1 km/h (2 Bft)
24/02/2012 19:50 10,1 C 90 % 1028,1 hPa 0,0 mm 4,3 km/h (1 Bft) NE 45 0 min 0 W/m 8,5 C 10,1 C 9,0 km/h (2 Bft)
24/02/2012 20:00 9,9 C 90 % 1028,0 hPa 0,0 mm 7,6 km/h (2 Bft) NE 45 0 min 0 W/m 8,3 C 9,0 C 9,0 km/h (2 Bft)
24/02/2012 20:10 9,9 C 90 % 1028,0 hPa 0,0 mm 2,5 km/h (1 Bft) NE 45 0 min 0 W/m 8,3 C 9,9 C 4,3 km/h (1 Bft)
24/02/2012 20:20 9,8 C 90 % 1028,0 hPa 0,0 mm 0,7 km/h (0 Bft) NE 45 0 min 0 W/m 8,2 C 9,8 C 0,7 km/h (0 Bft)
24/02/2012 20:30 9,8 C 90 % 1028,0 hPa 0,0 mm 7,9 km/h (2 Bft) E-NE 67 0 min 0 W/m 8,2 C 8,8 C 11,9 km/h (2 Bft)
24/02/2012 20:40 9,8 C 90 % 1027,9 hPa 0,0 mm 5,8 km/h (2 Bft) N-NE 22 0 min 0 W/m 8,2 C 9,3 C 9,0 km/h (2 Bft)
24/02/2012 20:50 9,8 C 90 % 1028,0 hPa 0,0 mm 7,9 km/h (2 Bft) NE 45 0 min 0 W/m 8,2 C 8,8 C 8,6 km/h (2 Bft)
24/02/2012 21:00 9,7 C 90 % 1027,9 hPa 0,0 mm 5,0 km/h (1 Bft) NE 45 0 min 0 W/m 8,1 C 9,4 C 8,6 km/h (2 Bft)
24/02/2012 21:10 9,6 C 90 % 1028,0 hPa 0,0 mm 3,2 km/h (1 Bft) E-NE 67 0 min 0 W/m 8,0 C 9,6 C 4,0 km/h (1 Bft)
24/02/2012 21:20 9,6 C 91 % 1028,0 hPa 0,0 mm 2,5 km/h (1 Bft) NE 45 0 min 0 W/m 8,2 C 9,6 C 4,3 km/h (1 Bft)
24/02/2012 21:30 9,6 C 91 % 1028,0 hPa 0,0 mm 4,0 km/h (1 Bft) NE 45 0 min 0 W/m 8,2 C 9,6 C 7,9 km/h (2 Bft)
24/02/2012 21:40 9,5 C 91 % 1027,9 hPa 0,0 mm 4,7 km/h (1 Bft) NE 45 0 min 0 W/m 8,1 C 9,3 C 7,6 km/h (2 Bft)
24/02/2012 21:50 9,5 C 91 % 1028,0 hPa 0,0 mm 5,8 km/h (2 Bft) NE 45 0 min 0 W/m 8,1 C 9,0 C 9,4 km/h (2 Bft)
24/02/2012 22:00 9,4 C 91 % 1027,8 hPa 0,0 mm 4,3 km/h (1 Bft) NE 45 0 min 0 W/m 8,0 C 9,4 C 8,6 km/h (2 Bft)
24/02/2012 22:10 9,4 C 91 % 1027,8 hPa 0,0 mm 5,0 km/h (1 Bft) NE 45 0 min 0 W/m 8,0 C 9,1 C 10,8 km/h (2 Bft)
24/02/2012 22:20 9,4 C 91 % 1027,9 hPa 0,0 mm 2,9 km/h (1 Bft) N-NE 22 0 min 0 W/m 8,0 C 9,4 C 4,3 km/h (1 Bft)
24/02/2012 22:30 9,3 C 91 % 1027,9 hPa 0,0 mm 6,1 km/h (2 Bft) NE 45 0 min 0 W/m 7,9 C 8,6 C 10,1 km/h (2 Bft)
24/02/2012 22:40 9,3 C 91 % 1027,9 hPa 0,0 mm 2,5 km/h (1 Bft) E-NE 67 0 min 0 W/m 7,9 C 9,3 C 4,3 km/h (1 Bft)
24/02/2012 22:50 9,2 C 91 % 1027,9 hPa 0,0 mm 2,5 km/h (1 Bft) NE 45 0 min 0 W/m 7,8 C 9,2 C 3,6 km/h (1 Bft)
24/02/2012 23:00 9,1 C 91 % 1027,9 hPa 0,0 mm 6,5 km/h (2 Bft) NE 45 0 min 0 W/m 7,7 C 8,3 C 7,9 km/h (2 Bft)
24/02/2012 23:10 9,1 C 91 % 1027,7 hPa 0,0 mm 9,0 km/h (2 Bft) NE 45 0 min 0 W/m 7,7 C 7,7 C 11,9 km/h (2 Bft)
24/02/2012 23:20 9,1 C 91 % 1027,7 hPa 0,0 mm 6,5 km/h (2 Bft) NE 45 0 min 0 W/m 7,7 C 8,3 C 9,0 km/h (2 Bft)
24/02/2012 23:30 9,1 C 91 % 1027,7 hPa 0,0 mm 1,4 km/h (1 Bft) E-NE 67 0 min 0 W/m 7,7 C 9,1 C 4,3 km/h (1 Bft)
_ Min-Heure 08:00 17:50 23:30 - 14:20 - - - - 06:10 08:00 14:20
Minimum _ 6,4 C 88 % 1027,7 hPa - 0,0 km/h (0 Bft) - - - - 5,6 C 6,4 C 0,0 km/h (0 Bft)
_ Max-Heure 14:50 12:20 01:30 09:00 23:10 - - 18:20 23:30 12:20 14:50 23:10
Maximum _ 11,6 C 96 % 1029,9 hPa 0,1 mm 9,0 km/h
NE (2 Bft)
- - 2 min 0 W/m 10,5 C 11,6 C 11,9 km/h
NE (2 Bft)
Moyenne _ 8,8 C 93 % 1028,9 hPa #0,2 mm 1,9 km/h (1 Bft) NE - #2:06 h 0 W/m 7,7 C 8,8 C 3,0 km/h (1 Bft)
Saint Bonnet de Bellac- Haute Vienne - France